User: anonymous   Login
Location: Unspecified
(0.0000°N, 0.0000°E)
Time: 06:15:53
(UTC+00:00)
Language:

HODOYOSHI 4 - Orbit

View from above orbital plane
View from above orbital plane
View from above satellite
View from above satellite

Ground track
Ground track

The orbit data is extracted from the following two-line orbital elements,

1 40011U 14033B   18116.72927818  .00000133  00000-0  23903-4 0  9996
2 40011  97.8578  14.2396 0026465 334.8517  25.1415 14.80994250208168
Epoch (UTC): 26 April 2018 17:30:09
Eccentricity: 0.0026465
inclination: 97.8578°
perigee height: 607 km
apogee height: 645 km
right ascension of ascending node: 14.2396°
argument of perigee: 334.8517°
revolutions per day: 14.80994250
mean anomaly at epoch: 25.1415°
orbit number at epoch: 20816

The dashed part of the orbit path shows where the satellite is in the earth's shadow,  

DLR